Location: Newark
(46.4551°N, 12.7452°E)
Time: 13:21:48
(UTC+00:00)

Envisat - Visible Passes

Search period start: 14 December 2019 00:00
Search period end: 24 December 2019 00:00
Orbit: 764 x 766 km, 98.1° (Epoch: 14 December)

Date Brightness Start Highest point End Pass type
(mag) Time Alt. Az. Time Alt. Az. Time Alt. Az.
14 Dec 4.3 05:32:36 10° NNE 05:37:28 44° E 05:42:18 10° S visible
14 Dec 2.9 16:49:38 10° SSE 16:54:42 75° ENE 16:59:48 10° N visible
14 Dec 5.9 18:31:26 10° WSW 18:34:18 15° W 18:37:12 10° NW visible
15 Dec 5.6 04:56:33 10° NE 05:00:25 21° E 05:04:15 10° SE visible
15 Dec 3.5 16:13:28 10° SE 16:18:06 37° ENE 16:22:44 10° N visible
15 Dec 4.8 17:52:40 10° SSW 17:57:09 31° W 18:01:40 10° NNW visible
16 Dec 3.3 05:57:55 10° NNE 06:03:02 75° ESE 06:08:06 10° S visible
16 Dec 3.4 17:15:10 10° S 17:20:12 66° WSW 17:25:17 10° NNW visible
17 Dec 4.8 05:21:27 10° NNE 05:26:07 35° E 05:30:45 10° SSE visible
17 Dec 3.0 16:38:28 10° SSE 16:43:26 61° ENE 16:48:29 10° N visible
17 Dec 5.6 18:19:21 10° SW 18:22:53 19° W 18:26:27 10° NW visible
18 Dec 5.9 04:45:41 10° NE 04:49:00 17° E 04:52:18 10° SE visible
18 Dec 3.7 16:02:30 10° SE 16:06:53 30° ENE 16:11:17 10° N visible
18 Dec 4.4 17:41:04 10° SSW 17:45:48 39° W 17:50:33 10° NNW visible
19 Dec 3.7 05:46:41 10° NNE 05:51:44 60° E 05:56:44 10° S visible
19 Dec 3.1 17:03:49 10° SSE 17:08:54 82° WSW 17:14:01 10° NNW visible
19 Dec 6.2 18:47:34 10° W 18:48:44 11° W 18:49:54 10° WNW visible
20 Dec 5.2 05:10:22 10° NE 05:14:45 29° E 05:19:08 10° SSE visible
20 Dec 3.2 16:27:20 10° SE 16:32:13 49° ENE 16:37:06 10° N visible
20 Dec 5.3 18:07:28 10° SW 18:11:29 23° W 18:15:32 10° NW visible
21 Dec 6.1 04:35:02 10° ENE 04:37:35 14° E 04:40:06 10° ESE visible
21 Dec 3.0 06:12:08 10° NNE 06:17:15 82° WNW 06:22:19 10° SSW visible
21 Dec 4.0 15:51:37 10° ESE 15:55:42 25° ENE 15:59:48 10° N visible
21 Dec 4.0 17:29:33 10° S 17:34:27 48° W 17:39:23 10° NNW visible
22 Dec 4.1 05:35:29 10° NNE 05:40:25 48° E 05:45:18 10° S visible
22 Dec 2.9 16:52:33 10° SSE 16:57:37 82° ENE 17:02:44 10° NNW visible
22 Dec 6.0 18:34:44 10° WSW 18:37:17 14° W 18:39:51 10° WNW visible
23 Dec 5.5 04:59:21 10° NE 05:03:22 23° E 05:07:23 10° SE visible
23 Dec 3.4 16:16:17 10° SE 16:20:59 40° ENE 16:25:43 10° N visible
23 Dec 5.0 17:55:44 10° SSW 18:00:06 29° W 18:04:30 10° NW visible
